CW6427 Weather Reports


Display with metric or nautical units.
time (UTC)temp
F
wind
direction
speed
MPH
gust
MPH
rain 1hr
in
rain 24hr
in
rain mn
in
humidity
%
barometer
mb
20260902140855 67 218 5.0 18.0 0.35 0.36 0.36 99 1019.4
20260902135854 69 174 8.0 19.0 0.16 0.17 0.17 99 1019.9
20260902133854 70 177 3.0 8.0 0.00 0.01 0.01 100 1019.6
20260902132854 70 165 6.0 8.0 0.00 0.01 0.01 100 1019.8
20260902131854 70 171 5.0 9.0 0.00 0.01 0.01 100 1019.7
20260902125853 70 162 2.0 11.0 0.00 0.01 0.01 100 1019.9
20260902124853 70 126 8.0 9.0 0.00 0.01 0.01 100 1019.7
20260902123853 70 149 4.0 9.0 0.00 0.01 0.01 100 1019.6
20260902122853 70 148 4.0 9.0 0.00 0.01 0.01 100 1019.6
20260902121853 70 203 9.0 12.0 0.00 0.01 0.01 100 1019.5
20260902120852 69 164 6.0 12.0 0.00 0.01 0.01 100 1019.1
20260902115852 69 145 8.0 10.0 0.00 0.01 0.01 100 1019.1
20260902114852 69 175 3.0 10.0 0.00 0.01 0.01 100 1019.1
20260902113852 69 163 7.0 10.0 0.00 0.01 0.01 100 1019.0
20260902112852 69 158 5.0 11.0 0.00 0.01 0.01 100 1019.0
20260902111852 68 164 4.0 7.0 0.00 0.02 0.01 100 1019.0
20260902110851 68 172 5.0 9.0 0.00 0.02 0.01 100 1018.9
20260902105851 68 152 5.0 14.0 0.00 0.02 0.01 100 1019.0
20260902103851 68 174 10.0 10.0 0.00 0.02 0.01 100 1019.1
20260902101850 68 155 7.0 8.0 0.01 0.02 0.01 100 1019.3
20260902100850 68 164 4.0 5.0 0.01 0.02 0.01 100 1019.5
20260902095850 68 147 2.0 6.0 0.01 0.02 0.01 100 1019.6
20260902094850 68 157 5.0 7.0 0.01 0.02 0.01 100 1019.5
20260902093849 67 183 2.0 4.0 0.01 0.08 0.01 100 1019.4
20260902092850 67 190 3.0 3.0 0.01 0.11 0.01 100 1019.3
20260902090849 67 190 1.0 3.0 0.00 0.10 0.00 100 1019.5
20260902085849 67 190 1.0 3.0 0.00 0.10 0.00 100 1019.6
20260902084849 67 190 2.0 3.0 0.00 0.10 0.00 100 1019.7
20260902083849 67 189 3.0 5.0 0.00 0.10 0.00 100 1019.7
20260902082849 67 206 5.0 6.0 0.00 0.10 0.00 100 1019.6
20260902081848 66 219 3.0 5.0 0.00 0.10 0.00 100 1019.4
20260902074848 66 204 3.0 6.0 0.00 0.10 0.00 100 1019.5
20260902073848 66 204 3.0 5.0 0.00 0.10 0.00 100 1019.4
20260902072848 66 208 4.0 5.0 0.00 0.11 0.00 100 1019.3
20260902070847 66 213 3.0 4.0 0.00 0.11 0.00 100 1019.2
20260902064846 65 209 3.0 4.0 0.00 0.12 0.00 100 1019.2
20260902063846 65 192 3.0 4.0 0.00 0.12 0.00 100 1019.3
20260902062846 65 190 3.0 4.0 0.00 0.12 0.00 100 1019.4
20260902061846 66 192 2.0 4.0 0.00 0.12 0.00 100 1019.6
20260902060846 66 192 3.0 5.0 0.00 0.12 0.00 100 1019.6
20260902055846 66 188 3.0 4.0 0.00 0.12 0.00 100 1019.6
20260902054845 66 201 3.0 4.0 0.00 0.12 0.00 100 1019.5
20260902053845 66 194 3.0 4.0 0.00 0.12 0.00 100 1019.6
20260902052845 65 203 3.0 4.0 0.00 0.12 0.00 100 1019.4
20260902051845 66 202 2.0 3.0 0.00 0.12 0.00 100 1019.4
20260902050845 66 199 2.0 3.0 0.00 0.12 0.00 100 1019.3
20260902045845 66 200 2.0 3.0 0.00 0.12 0.00 100 1019.1
20260902044844 66 200 2.0 3.0 0.00 0.12 0.00 100 1019.2
20260902043844 67 208 3.0 4.0 0.00 0.13 0.00 100 1019.2
20260902042844 67 199 1.0 3.0 0.00 0.13 0.00 100 1019.1
20260902041844 67 199 2.0 3.0 0.00 0.13 0.00 100 1019.1
20260902040844 67 198 1.0 4.0 0.00 0.13 0.00 100 1019.1
20260902035844 67 205 3.0 4.0 0.00 0.13 0.13 100 1019.0
20260902034844 67 205 2.0 3.0 0.00 0.13 0.13 100 1018.9
20260902031843 68 205 2.0 4.0 0.00 0.14 0.13 100 1018.9
20260902030843 68 205 3.0 3.0 0.00 0.14 0.13 100 1018.9
20260902025843 68 205 2.0 3.0 0.00 0.14 0.13 100 1018.8
20260902024843 68 205 1.0 3.0 0.00 0.14 0.13 100 1018.9
20260902022843 69 214 2.0 3.0 0.00 0.14 0.13 100 1019.0
20260902021842 70 219 1.0 2.0 0.00 0.14 0.13 100 1019.0
20260902020842 70 219 0.0 1.0 0.00 0.14 0.13 100 1018.9
20260902014842 69 219 0.0 1.0 0.00 0.14 0.13 100 1018.8
20260902013842 70 219 0.0 2.0 0.00 0.14 0.13 99 1018.8
20260902012841 70 219 2.0 2.0 0.00 0.14 0.13 99 1018.8
20260902011841 70 219 0.0 4.0 0.00 0.14 0.13 100 1018.7
20260902010841 70 244 2.0 3.0 0.00 0.15 0.13 99 1018.7
20260902005841 70 328 0.0 2.0 0.00 0.15 0.13 99 1018.4
20260902004841 69 328 1.0 1.0 0.00 0.15 0.13 98 1018.0
20260902003840 70 328 0.0 1.0 0.00 0.16 0.13 98 1018.0
20260902001840 71 328 2.0 3.0 0.00 0.16 0.13 99 1017.7
20260902000840 71 346 0.0 3.0 0.00 0.16 0.13 98 1017.6
20260901235840 72 346 2.0 3.0 0.00 0.16 0.13 98 1017.5
20260901234839 72 346 0.0 1.0 0.00 0.16 0.13 96 1017.5
20260901233839 72 346 0.0 2.0 0.00 0.17 0.13 96 1017.6
20260901232839 73 346 1.0 1.0 0.00 0.17 0.13 95 1017.8
20260901231839 74 346 0.0 2.0 0.00 0.17 0.13 95 1017.7
20260901230839 74 346 0.0 1.0 0.00 0.17 0.13 95 1017.8
20260901225838 75 346 1.0 1.0 0.00 0.17 0.13 94 1017.9
20260901224838 75 346 0.0 2.0 0.00 0.17 0.13 94 1017.8
20260901223838 75 346 0.0 4.0 0.00 0.17 0.13 93 1018.0
20260901222838 76 11 1.0 2.0 0.00 0.17 0.13 93 1018.0
20260901221837 76 11 2.0 4.0 0.00 0.17 0.13 93 1017.9
20260901220838 76 28 3.0 4.0 0.00 0.18 0.13 92 1017.9
20260901215837 76 343 3.0 4.0 0.00 0.18 0.13 92 1017.7
20260901214837 76 35 2.0 3.0 0.00 0.20 0.13 93 1017.6
20260901212837 75 42 2.0 3.0 0.00 0.21 0.13 95 1017.5
20260901211836 75 33 2.0 5.0 0.00 0.21 0.13 95 1017.7
20260901210837 75 360 2.0 4.0 0.00 0.21 0.13 95 1017.8
20260901205836 75 19 2.0 5.0 0.00 0.21 0.13 95 1017.8
20260901204836 75 60 1.0 4.0 0.00 0.21 0.13 96 1017.7
20260901203836 75 355 2.0 6.0 0.00 0.21 0.13 96 1017.8
20260901202835 75 360 4.0 8.0 0.00 0.21 0.13 95 1017.7
20260901201836 75 5 2.0 5.0 0.00 0.21 0.13 94 1017.6
20260901200905 76 5 3.0 5.0 0.00 0.21 0.13 92 1017.6
20260901195835 76 360 4.0 5.0 0.00 0.21 0.13 91 1017.6
20260901194835 77 10 4.0 8.0 0.00 0.21 0.13 89 1017.6
20260901193905 77 311 4.0 10.0 0.00 0.21 0.13 89 1017.5
20260901192905 77 264 2.0 4.0 0.00 0.21 0.13 90 1017.6
20260901191904 76 299 3.0 7.0 0.00 0.21 0.13 89 1017.5
20260901190904 76 296 3.0 8.0 0.00 0.21 0.13 90 1017.6
20260901185904 76 313 6.0 11.0 0.00 0.21 0.13 89 1017.6
20260901184904 77 312 8.0 9.0 0.00 0.21 0.13 88 1017.7
20260901182834 76 340 3.0 8.0 0.00 0.21 0.13 91 1017.4
20260901181833 76 316 3.0 7.0 0.00 0.21 0.13 90 1017.4
20260901180903 76 299 5.0 5.0 0.00 0.21 0.13 89 1017.2
20260901175903 77 343 2.0 3.0 0.00 0.21 0.13 88 1017.0
20260901174903 76 343 0.0 4.0 0.00 0.21 0.13 89 1016.9
20260901173833 76 245 2.0 5.0 0.00 0.21 0.13 90 1017.1
20260901172832 76 223 4.0 5.0 0.00 0.21 0.13 90 1016.9
20260901171903 76 205 3.0 6.0 0.00 0.22 0.13 89 1017.0
20260901170902 76 20 3.0 6.0 0.00 0.22 0.13 89 1016.9
20260901164902 76 211 2.0 9.0 0.00 0.23 0.13 92 1017.0
20260901162902 75 201 2.0 6.0 0.00 0.23 0.13 93 1017.2
20260901161902 75 182 2.0 9.0 0.00 0.23 0.13 93 1017.2
20260901160901 75 196 5.0 9.0 0.00 0.24 0.13 92 1017.1
20260901155901 75 218 6.0 11.0 0.00 0.25 0.13 95 1017.0
20260901154901 74 207 5.0 9.0 0.00 0.26 0.13 95 1017.1
20260901153901 73 186 4.0 10.0 0.00 0.28 0.13 96 1017.1
20260901152901 72 183 6.0 8.0 0.00 0.29 0.13 96 1017.0
20260901151900 72 196 5.0 8.0 0.00 0.30 0.13 96 1017.1
20260901150900 72 200 4.0 7.0 0.00 0.30 0.13 96 1017.3
20260901144900 71 199 5.0 9.0 0.00 0.31 0.13 97 1017.2
20260901143900 71 190 3.0 9.0 0.00 0.31 0.13 98 1016.9
20260901142859 70 215 4.0 7.0 0.00 0.31 0.13 98 1017.0
20260901141900 70 209 3.0 9.0 0.00 0.31 0.13 98 1017.0